This demonstration page uses our WeatherBlox Daily Observations layout. Learn more.

Left ArrowRight Arrow

38.20091, -84.87328

Hourly Observations for July 11, 2020

Temp ( °F °C ) Dew Point ( °F °C ) Humidity (%) Winds ( mph kmh ) Pressure ( in mb ) Visibility ( mi km ) Precip ( " mm )
12:53 am 00:53 Clear 71 21.7 65 18.3 81 81 WSW 5 7 29.87 1012 10 16 0.00 0.00
1:53 am 01:53 Clear 71 21.7 65 18.3 81 81 W 3 6 29.87 1012 10 16 0.00 0.00
2:53 am 02:53 Clear 72 22.2 64 17.8 76 76 WNW 3 6 29.87 1012 10 16 0.00 0.00
3:53 am 03:53 Clear 71 21.7 63 17.2 76 76 W 5 7 29.88 1012 10 16 0.00 0.00
4:53 am 04:53 Clear 70 21.1 63 17.2 79 79 Calm 29.87 1012 10 16 0.00 0.00
5:53 am 05:53 Clear 70 21.1 63 17.2 79 79 WNW 6 9 29.89 1012 10 16 0.00 0.00
6:53 am 06:53 Sunny 69 20.6 62 16.7 78 78 WNW 3 6 29.89 1012 10 16 0.00 0.00
7:53 am 07:53 Sunny 72 22.2 64 17.8 76 76 NW 3 6 29.90 1012 10 16 0.00 0.00
8:53 am 08:53 Sunny 76 24.4 65 18.3 69 69 NW 6 9 29.93 1013 10 16 0.00 0.00
9:53 am 09:53 Sunny 80 26.7 66 18.9 62 62 WNW 6 9 29.93 1014 10 16 0.00 0.00
10:53 am 10:53 Sunny 82 27.8 64 17.8 55 55 N 6 9 29.93 1014 10 16 0.00 0.00
11:53 am 11:53 Mostly Sunny 84 28.9 64 17.8 51 51 VRB 7 11 29.92 1013 10 16 0.00 0.00
12:53 pm 12:53 Partly Cloudy 84 28.9 63 17.2 49 49 WNW 7 11 29.93 1013 10 16 0.00 0.00
1:53 pm 13:53 Partly Cloudy 85 29.4 62 16.7 46 46 NW 12 19 29.92 1013 10 16 0.00 0.00
2:53 pm 14:53 Mostly Cloudy 85 29.4 62 16.7 46 46 NW 8 13 29.91 1013 10 16 0.00 0.00
3:53 pm 15:53 Mostly Sunny 88 31.1 60 15.6 39 39 NW 12 19 29.91 1013 10 16 0.00 0.00
4:53 pm 16:53 Sunny 87 30.6 63 17.2 45 45 W 8 13 29.89 1012 10 16 0.00 0.00
5:53 pm 17:53 Mostly Sunny 86 30 63 17.2 46 46 WNW 5 7 29.88 1012 10 16 0.00 0.00
6:53 pm 18:53 Mostly Sunny 87 30.6 64 17.8 46 46 VRB 7 11 29.84 1011 10 16 0.00 0.00
7:53 pm 19:53 Sunny 83 28.3 64 17.8 53 53 W 3 6 29.86 1011 10 16 0.00 0.00
8:22 pm 20:22 Mostly Cloudy with Nearby Thunderstorms 82 27.8 67 19.4 60 60 N 8 13 29.86 1011 7 11 0.01 0.25
8:53 pm 20:53 Partly Cloudy with Nearby Thunderstorms 73 22.8 66 18.9 79 79 NE 10 17 29.89 1012 10 16 0.01 0.25
9:24 pm 21:24 Cloudy with Strong Thunderstorms 71 21.7 65 18.3 81 81 WNW 14 22 29.97 1015 2 3 0.17 4.32
9:26 pm 21:26 Cloudy with Strong Thunderstorms 70 21.1 65 18.3 84 84 W 8 13 29.97 1015 1 2 0.30 7.62
9:29 pm 21:29 Cloudy with Strong Thunderstorms 69 20.6 66 18.9 90 90 NW 3 6 29.96 1015 1 1 0.47 11.94
9:38 pm 21:38 Cloudy with Strong Thunderstorms 69 20.6 66 18.9 90 90 SW 6 9 29.96 1015 1 1 0.88 22.35
9:45 pm 21:45 Cloudy with Strong Thunderstorms 68 20 66 18.9 93 93 SSE 5 7 29.93 1014 1 2 0.97 24.64
9:50 pm 21:50 Cloudy with Thunderstorms 70 21 66 19 88 88 VRB 3 6 29.94 1014 3 4 0.98 24.89
9:53 pm 21:53 Cloudy with Thunderstorms 69 20.6 66 18.9 90 90 SW 6 9 29.93 1014 6 10 0.98 24.89
10:02 pm 22:02 Cloudy with Light Rain 69 20.6 66 18.9 90 90 SW 6 9 29.94 1014 8 13 0.01 0.25
10:19 pm 22:19 Cloudy with Nearby Thunderstorms 70 21.1 66 18.9 87 87 SW 3 6 29.92 1013 5 8 0.07 1.78
10:48 pm 22:48 Mostly Cloudy with Light Rain 70 21 66 19 88 88 SW 6 9 29.91 1013 9 14 0.14 3.56
10:53 pm 22:53 Cloudy with Light Rain 70 21.1 66 18.9 87 87 SW 7 11 29.91 1013 9 14 0.14 3.56
11:53 pm 23:53 Clear 68 20 65 18.3 90 90 SW 13 20 29.87 1012 10 16 0.01 0.25

Powered by AerisWeather